Change the Weather History Date:

Friday, March 7, 2014

  Actual Average Record
Temperature  
Mean Temperature 22 °F -  
Max Temperature 37 °F 39 °F 55 °F (2009)
Min Temperature 8 °F 28 °F 8 °F (2014)
Degree Days  
Heating Degree Days 42    
Moisture  
Dew Point 21 °F    
Average Humidity 78    
Maximum Humidity 100    
Minimum Humidity 56    
Precipitation  
Precipitation 0.30 in - - ()
Sea Level Pressure  
Sea Level Pressure 30.26 in    
Wind  
Wind Speed 3 mph (ENE)    
Max Wind Speed 10 mph    
Max Gust Speed -    
Visibility 10 miles    
Events      
Averages and records for this station are not official NWS values.
T = Trace of Precipitation, MM = Missing Value Source: NWS Daily Summary

Daily Weather History Graph

Daily Weather History Graph

Search for Another Location

Airport or City:

Trip Planner

Search our weather history database for the weather conditions in past years. The results will help you decide how hot, cold, wet, or windy it might be!

Date:

Astronomy

Mar. 07, 2014 Rise Set
Actual Time 6:06 AM EST 5:38 PM EST
Civil Twilight 5:38 AM EST 6:06 PM EST
Nautical Twilight 5:06 AM EST 6:38 PM EST
Astronomical Twilight 4:33 AM EST 7:11 PM EST
Moon 9:50 AM EST (3/7) No Moon Set
Length of Visible Light 12h 27m
Length of Day
11h 31m
Waxing Crescent, 42% of the Moon is Illuminated
Mar 7
Waxing Crescent
Mar 8
First Quarter
Mar 16
Full
Mar 23
Last Quarter
Mar 30
New

Hourly Weather History & Observations

Time (EST) Temp. Windchill Dew Point Humidity Pressure Visibility Wind Dir Wind Speed Gust Speed Precip Events Conditions
12:15 AM 8.6 °F - 5.0 °F 85% 30.52 in 10.0 mi Calm Calm - 0.01 in   Clear
12:35 AM 8.6 °F - 8.6 °F 100% 30.51 in 10.0 mi Calm Calm - 0.02 in   Clear
12:55 AM 10.4 °F - 10.4 °F 100% 30.51 in 10.0 mi Calm Calm - 0.02 in   Clear
1:15 AM 8.6 °F 2.0 °F 3.2 °F 79% 30.50 in 10.0 mi SSW 3.5 mph - 0.02 in   Clear
1:35 AM 10.4 °F 4.0 °F 8.6 °F 92% 30.51 in 10.0 mi SSW 3.5 mph - 0.02 in   Clear
1:55 AM 10.4 °F - 3.2 °F 73% 30.50 in 10.0 mi Calm Calm - 0.02 in   Clear
2:15 AM 8.6 °F - 5.0 °F 85% 30.50 in 10.0 mi Calm Calm - N/A   Clear
2:35 AM 10.4 °F - 3.2 °F 73% 30.49 in 10.0 mi Calm Calm - N/A   Clear
2:55 AM 8.6 °F - 5.0 °F 85% 30.47 in 10.0 mi Calm Calm - N/A   Clear
3:15 AM 8.6 °F 0.1 °F 5.0 °F 85% 30.45 in 10.0 mi North 4.6 mph - N/A   Clear
3:35 AM 8.6 °F 2.0 °F 6.8 °F 92% 30.44 in 10.0 mi North 3.5 mph - 0.01 in   Clear
3:55 AM 10.4 °F - 6.8 °F 85% 30.44 in 10.0 mi Calm Calm - 0.01 in   Clear
4:15 AM 10.4 °F - 8.6 °F 92% 30.44 in 10.0 mi Calm Calm - 0.03 in   Clear
4:35 AM 12.2 °F - 8.6 °F 85% 30.43 in 10.0 mi Calm Calm - 0.03 in   Clear
4:55 AM 10.4 °F - 3.2 °F 73% 30.43 in 10.0 mi Calm Calm - 0.03 in   Clear
5:15 AM 12.2 °F - 5.0 °F 73% 30.43 in 10.0 mi Calm Calm - N/A   Clear
5:35 AM 10.4 °F - 6.8 °F 85% 30.43 in 10.0 mi Calm Calm - N/A   Clear
5:55 AM 10.4 °F - 6.8 °F 85% 30.42 in 10.0 mi Calm Calm - N/A   Clear
6:15 AM 10.4 °F - 6.8 °F 85% 30.41 in 10.0 mi Calm Calm - 0.01 in   Clear
6:35 AM 10.4 °F - 8.6 °F 92% 30.39 in 10.0 mi Calm Calm - 0.01 in   Clear
6:55 AM 12.2 °F - 8.6 °F 85% 30.41 in 10.0 mi Calm Calm - 0.01 in   Clear
7:15 AM 15.8 °F - 14.0 °F 93% 30.41 in 10.0 mi Calm Calm - N/A   Clear
7:35 AM 21.2 °F - 17.6 °F 86% 30.40 in 10.0 mi Calm Calm - 0.01 in   Clear
7:55 AM 24.8 °F - 21.2 °F 86% 30.40 in 10.0 mi Calm Calm - 0.01 in   Clear
8:15 AM 28.4 °F - 21.2 °F 74% 30.40 in 10.0 mi Calm Calm - N/A   Clear
8:35 AM 30.2 °F - 21.2 °F 69% 30.38 in 10.0 mi Calm Calm - 0.01 in   Clear
8:55 AM 33.8 °F 29.6 °F 21.2 °F 60% 30.37 in 10.0 mi ENE 4.6 mph - 0.02 in   Clear
9:15 AM 33.8 °F 28.6 °F 21.2 °F 60% 30.35 in 10.0 mi ESE 5.8 mph - N/A   Clear
9:35 AM 33.8 °F 26.4 °F 21.2 °F 60% 30.36 in 10.0 mi SE 9.2 mph - 0.01 in   Clear
9:55 AM 35.6 °F 29.2 °F 23.0 °F 60% 30.36 in 10.0 mi South 8.1 mph - 0.01 in   Clear
10:15 AM 35.6 °F 30.7 °F 23.0 °F 60% 30.35 in 10.0 mi SE 5.8 mph - 0.01 in   Clear
10:35 AM 35.6 °F 29.2 °F 21.2 °F 56% 30.34 in 10.0 mi SE 8.1 mph - 0.01 in   Clear
10:55 AM 35.6 °F 29.9 °F 21.2 °F 56% 30.34 in 10.0 mi SSE 6.9 mph - 0.01 in   Scattered Clouds
11:15 AM 37.4 °F 30.8 °F 24.8 °F 60% 30.35 in 10.0 mi SSE 9.2 mph - 0.01 in   Mostly Cloudy
11:35 AM 37.4 °F 31.4 °F 24.8 °F 60% 30.33 in 10.0 mi ESE 8.1 mph - 0.01 in   Scattered Clouds
11:55 AM 35.6 °F 29.9 °F 24.8 °F 65% 30.32 in 10.0 mi ESE 6.9 mph - 0.03 in   Partly Cloudy
12:15 PM 35.6 °F 32.8 °F 24.8 °F 65% 30.29 in 10.0 mi East 3.5 mph - N/A   Clear
12:35 PM 35.6 °F - 23.0 °F 60% 30.27 in 10.0 mi Calm Calm - N/A   Clear
12:55 PM 35.6 °F 31.7 °F 24.8 °F 65% 30.26 in 10.0 mi NE 4.6 mph - N/A   Scattered Clouds
1:15 PM 35.6 °F 29.2 °F 24.8 °F 65% 30.25 in 10.0 mi East 8.1 mph - N/A   Overcast
1:35 PM 37.4 °F 32.1 °F 26.6 °F 65% 30.24 in 10.0 mi East 6.9 mph - N/A   Overcast
1:55 PM 37.4 °F 32.1 °F 26.6 °F 65% 30.22 in 10.0 mi East 6.9 mph - N/A   Overcast
2:15 PM 37.4 °F 32.1 °F 26.6 °F 65% 30.21 in 10.0 mi East 6.9 mph - N/A   Overcast
2:35 PM 37.4 °F 30.3 °F 26.6 °F 65% 30.19 in 10.0 mi ENE 10.4 mph - N/A   Overcast
2:55 PM 35.6 °F 28.6 °F 26.6 °F 70% 30.17 in 10.0 mi ENE 9.2 mph - 0.01 in   Overcast
3:15 PM 35.6 °F 29.2 °F 26.6 °F 70% 30.16 in 10.0 mi NE 8.1 mph - N/A   Overcast
3:35 PM 35.6 °F 30.7 °F 28.4 °F 75% 30.15 in 10.0 mi NE 5.8 mph - N/A   Scattered Clouds
3:55 PM 35.6 °F 29.9 °F 26.6 °F 70% 30.15 in 10.0 mi ENE 6.9 mph - N/A   Scattered Clouds
4:15 PM 35.6 °F 30.7 °F 28.4 °F 75% 30.14 in 10.0 mi ENE 5.8 mph - N/A   Mostly Cloudy
4:35 PM 35.6 °F 29.9 °F 26.6 °F 70% 30.13 in 10.0 mi ENE 6.9 mph - N/A   Mostly Cloudy
4:55 PM 35.6 °F 29.9 °F 28.4 °F 75% 30.12 in 10.0 mi ENE 6.9 mph - N/A   Overcast
5:15 PM 35.6 °F 30.7 °F 28.4 °F 75% 30.13 in 10.0 mi ENE 5.8 mph - N/A   Mostly Cloudy
5:35 PM 35.6 °F 30.7 °F 28.4 °F 75% 30.12 in 10.0 mi ENE 5.8 mph - N/A   Mostly Cloudy
5:55 PM 35.6 °F 30.7 °F 28.4 °F 75% 30.12 in 10.0 mi ENE 5.8 mph - N/A   Mostly Cloudy
6:15 PM 35.6 °F 30.7 °F 28.4 °F 75% 30.12 in 10.0 mi ENE 5.8 mph - N/A   Overcast
6:35 PM 35.6 °F 31.7 °F 30.2 °F 81% 30.12 in 10.0 mi ENE 4.6 mph - N/A   Overcast
6:55 PM 35.6 °F 30.7 °F 30.2 °F 81% 30.11 in 10.0 mi NE 5.8 mph - N/A   Overcast
7:15 PM 35.6 °F 29.9 °F 30.2 °F 81% 30.10 in 10.0 mi NE 6.9 mph - 0.01 in   Overcast
7:35 PM 35.6 °F 29.2 °F 30.2 °F 81% 30.08 in 10.0 mi ENE 8.1 mph - 0.02 in   Overcast
7:55 PM 35.6 °F 29.9 °F 30.2 °F 81% 30.07 in 10.0 mi ENE 6.9 mph - 0.02 in   Overcast
8:15 PM 35.6 °F 29.2 °F 30.2 °F 81% 30.06 in 10.0 mi ENE 8.1 mph - N/A   Mostly Cloudy
8:35 PM 35.6 °F 30.7 °F 30.2 °F 81% 30.05 in 10.0 mi ENE 5.8 mph - N/A   Mostly Cloudy
8:55 PM 35.6 °F 30.7 °F 32.0 °F 87% 30.04 in 10.0 mi ENE 5.8 mph - N/A   Partly Cloudy
9:15 PM 35.6 °F 31.7 °F 32.0 °F 87% 30.03 in 10.0 mi ENE 4.6 mph - N/A   Clear
9:35 PM 35.6 °F 30.7 °F 32.0 °F 87% 30.02 in 10.0 mi NE 5.8 mph - N/A   Clear
9:55 PM 35.6 °F 29.2 °F 33.8 °F 93% 30.02 in 10.0 mi NNE 8.1 mph - N/A   Clear
10:15 PM 35.6 °F 29.2 °F 32.0 °F 87% 30.00 in 10.0 mi NNE 8.1 mph - 0.05 in   Partly Cloudy
10:35 PM 35.6 °F 29.9 °F 33.8 °F 93% 29.99 in 10.0 mi NE 6.9 mph - 0.09 in   Scattered Clouds
10:55 PM 35.6 °F 29.2 °F 33.8 °F 93% 29.98 in 10.0 mi NNE 8.1 mph - 0.09 in   Partly Cloudy
11:15 PM 35.6 °F 29.9 °F 33.8 °F 93% 29.96 in 10.0 mi NE 6.9 mph - N/A   Clear
11:35 PM 35.6 °F 28.6 °F 33.8 °F 93% 29.95 in 10.0 mi NNE 9.2 mph - 0.01 in   Clear
11:55 PM 35.6 °F 29.2 °F 33.8 °F 93% 29.93 in 10.0 mi NE 8.1 mph - 0.01 in   Clear